Terug naar catalogus

STARLINK-11199

ActiefCommunicatieVLEO
NORAD 60404·PAYLOAD·🇺🇸 United States

Gelanceerd Aug 10, 2024 vanaf Cape Canaveral Space Force Station

Loading…

Volgende Passages (komende 24 uur)

TLE

VersSource: CelesTrak SupGP

Epoch: Sep 15, 2026, 03:39 UTC

1 60404C 24141G   26258.15256944 -.00089717  00000+0 -73856-3 0  2588
2 60404  53.1578 232.5730 0001190  90.2275   0.4546 15.69769463    19

Volg STARLINK-11199 in realtime met AllMySat

Download on the App Store